Location: Buckeye Ditch
(40.9104°N, 122.9517°W)
Time: 12:38:16
(UTC+00:00)

Explorer 7 - Pass Details

Date: 24 May 2025
Orbit: 445 x 571 km, 50.3° (Epoch: 22 June)

Event Time Altitude Azimuth Distance (km) Brightness Sun altitude
Rises 10:30:07 0° 274° (W) 2,486 - -20.0°
Reaches altitude 10° 10:32:30 10° 289° (WNW) 1,632 - -19.8°
Exits shadow 10:33:14 14° 296° (WNW) 1,407 8.8 -19.7°
Maximum altitude 10:35:35 25° 346° (NNW) 1,018 8.6 -19.4°
Drops below altitude 10° 10:38:48 10° 43° (NE) 1,696 10.6 -19.1°
Sets 10:41:20 0° 57° (ENE) 2,608 11.6 -18.8°
